{"data":{"norad_id":64960,"intl_designator":"2025-159E","name":"HULIANWANG DIGUI-39","alt_names":[],"object_type":"PAYLOAD","status":"ACTIVE","operator":null,"country":"PRC","launch_date":"2025-07-27","launch_site_code":"TAISC","launch_vehicle":null,"mission":null,"orbit_class":"UNKNOWN","rcs_meters":null,"size_class":null,"mass_kg":null,"dimensions":null,"purposes":[],"wikipedia_slug":null,"has_3d_model":false,"image_url":null,"decayed_at":null,"tle_current":{"epoch":"2026-05-25T04:22:47.587872Z","epoch_age_seconds":52562,"freshness":"FRESH","line1":"1 64960U 25159E   26145.18249523  .00000054  00000+0  90586-4 0  9999","line2":"2 64960  86.4919 290.1672 0001877  94.7535 265.3813 13.24406098 40084","mean_motion":13.24406098,"eccentricity":0.0001877,"inclination_deg":86.4919,"raan_deg":290.1672,"arg_perigee_deg":94.7535,"mean_anomaly_deg":265.3813,"bstar":9.0586e-5,"rev_number":4008,"period_min":108.72798019992,"perigee_km":1166.5206091267,"apogee_km":1169.353405309,"semimajor_km":7546.0740072179,"source":"CELESTRAK","updated_at":"2026-05-25T13:38:04.942163Z"}}}